Retour au catalogue

STARLINK-5065

ActifCommunicationsVLEO
NORAD 55641·PAYLOAD·🇺🇸 United States

Lancé Feb 17, 2023 depuis Vandenberg Space Force Base

Loading…

Prochains Passages (prochaines 24 heures)

TLE

FraisSource: CelesTrak SupGP

Époque: Sep 15, 2026, 01:53 UTC

1 55641C 23021P   26258.07895833 -.00052131  00000+0 -43693-2 0  2583
2 55641  70.0009  67.0719 0002706 267.8364 202.1632 14.98353254    11

Suivez STARLINK-5065 en temps réel avec AllMySat

Download on the App Store